Bowling Green, Kentucky, United States (42101)
Lat: 36.99N, Lon: 86.44W
Wx Zone: KYZ071
Local Info
Past Weather Observations for Today

NOTE: This archive is for the closest National Weather Service station to Bowling Green. Information may differ from the station used for current weather conditions.

Time Weather Temperature Dewpoint Humidity Pressure Winds Precip Visibility
22:15
Clear
54°F / 12°C 48°F / 9°C 82% 30.12 in
(1020 mb)
Calm - 10SM
21:55
Clear
55°F / 13°C 48°F / 9°C 77% 30.12 in
(1020 mb)
Calm - 10SM
21:35
Clear
55°F / 13°C 46°F / 8°C 72% 30.12 in
(1020 mb)
Calm - 10SM
21:15
Clear
55°F / 13°C 46°F / 8°C 72% 30.12 in
(1020 mb)
Calm - 10SM
20:55
Clear
57°F / 14°C 46°F / 8°C 67% 30.12 in
(1020 mb)
Calm - 10SM
20:35
Clear
57°F / 14°C 46°F / 8°C 67% 30.12 in
(1020 mb)
Calm - 10SM
20:15
Clear
59°F / 15°C 46°F / 8°C 63% 30.12 in
(1020 mb)
Calm - 10SM
19:55
Clear
61°F / 16°C 46°F / 8°C 59% 30.12 in
(1020 mb)
Calm - 10SM
19:35
Clear
63°F / 17°C 45°F / 7°C 52% 30.12 in
(1020 mb)
Calm - 10SM
19:15
Clear
63°F / 17°C 45°F / 7°C 52% 30.12 in
(1020 mb)
Calm - 10SM
18:55
Clear
64°F / 18°C 45°F / 7°C 49% 30.12 in
(1020 mb)
Calm - 10SM
18:35
Clear
68°F / 20°C 45°F / 7°C 43% 30.12 in
(1020 mb)
Calm - 10SM
18:15
Clear
70°F / 21°C 45°F / 7°C 40% 30.12 in
(1020 mb)
Calm - 10SM
17:55
Clear
72°F / 22°C 45°F / 7°C 38% 30.12 in
(1020 mb)
NW 3.5 mph
(NW 6 kph)
- 10SM
17:35
Clear
72°F / 22°C 46°F / 8°C 41% 30.12 in
(1020 mb)
NW 3.5 mph
(NW 6 kph)
- 10SM
17:15
Clear
72°F / 22°C 46°F / 8°C 41% 30.12 in
(1020 mb)
Calm - 10SM
16:55
Clear
73°F / 23°C 45°F / 7°C 36% 30.12 in
(1020 mb)
NW 3.5 mph
(NW 6 kph)
- 10SM
16:35
Clear
75°F / 24°C 45°F / 7°C 34% 30.12 in
(1020 mb)
Calm - 10SM
16:15
Clear
77°F / 25°C 45°F / 7°C 32% 30.12 in
(1020 mb)
Calm - 10SM
15:55
Clear
77°F / 25°C 43°F / 6°C 30% 30.12 in
(1020 mb)
W 4.6 mph
(W 7 kph)
- 10SM
15:35
Clear
77°F / 25°C 41°F / 5°C 28% 30.12 in
(1020 mb)
Calm - 10SM
15:15
Clear
77°F / 25°C 43°F / 6°C 30% 30.15 in
(1021 mb)
W 3.5 mph
(W 6 kph)
- 10SM
14:55
Clear
77°F / 25°C 41°F / 5°C 28% 30.15 in
(1021 mb)
Calm - 10SM
14:35
Clear
77°F / 25°C 39°F / 4°C 26% 30.15 in
(1021 mb)
Calm - 10SM
14:15
Clear
77°F / 25°C 43°F / 6°C 30% 30.15 in
(1021 mb)
E 4.6 mph
(E 7 kph)
- 10SM
13:55
Clear
77°F / 25°C 41°F / 5°C 28% 30.15 in
(1021 mb)
SW 5.8 mph
(SW 9 kph)
- 10SM
13:35
Clear
77°F / 25°C 41°F / 5°C 28% 30.15 in
(1021 mb)
SE 3.5 mph
(SE 6 kph)
- 10SM
13:15
Clear
77°F / 25°C 41°F / 5°C 28% 30.18 in
(1022 mb)
SW 4.6 mph
(SW 7 kph)
- 10SM
12:55
Clear
75°F / 24°C 41°F / 5°C 29% 30.18 in
(1022 mb)
NW 4.6 mph
(NW 7 kph)
- 10SM
12:35
Clear
75°F / 24°C 41°F / 5°C 29% 30.18 in
(1022 mb)
Calm - 10SM
12:15
Clear
75°F / 24°C 41°F / 5°C 29% 30.18 in
(1022 mb)
S 4.6 mph
(S 7 kph)
- 10SM
11:55
Clear
73°F / 23°C 43°F / 6°C 33% 30.21 in
(1023 mb)
Calm - 10SM
11:35
Clear
73°F / 23°C 45°F / 7°C 36% 30.21 in
(1023 mb)
SSE 3.5 mph
(SSE 6 kph)
- 10SM
11:15
Clear
73°F / 23°C 43°F / 6°C 33% 30.21 in
(1023 mb)
Calm - 10SM
10:55
Clear
72°F / 22°C 43°F / 6°C 36% 30.21 in
(1023 mb)
W 3.5 mph
(W 6 kph)
- 10SM
10:35
Clear
72°F / 22°C 43°F / 6°C 36% 30.21 in
(1023 mb)
NW 4.6 mph
(NW 7 kph)
- 10SM
10:15
Clear
70°F / 21°C 43°F / 6°C 38% 30.21 in
(1023 mb)
SSW 3.5 mph
(SSW 6 kph)
- 10SM
09:55
Clear
70°F / 21°C 43°F / 6°C 38% 30.24 in
(1024 mb)
Calm - 10SM
09:35
Clear
68°F / 20°C 45°F / 7°C 43% 30.24 in
(1024 mb)
Calm - 10SM
09:15
Clear
66°F / 19°C 43°F / 6°C 43% 30.24 in
(1024 mb)
SE 3.5 mph
(SE 6 kph)
- 10SM
08:55
Clear
64°F / 18°C 43°F / 6°C 46% 30.24 in
(1024 mb)
Calm - 10SM
08:35
Clear
63°F / 17°C 43°F / 6°C 49% 30.24 in
(1024 mb)
SSE 3.5 mph
(SSE 6 kph)
- 10SM
08:15
Clear
61°F / 16°C 43°F / 6°C 52% 30.24 in
(1024 mb)
Calm - 10SM
07:55
Clear
59°F / 15°C 41°F / 5°C 51% 30.24 in
(1024 mb)
Calm - 10SM
07:35
Clear
57°F / 14°C 39°F / 4°C 51% 30.24 in
(1024 mb)
Calm - 10SM
07:15
Clear
55°F / 13°C 39°F / 4°C 55% 30.24 in
(1024 mb)
Calm - 10SM
06:55
Clear
54°F / 12°C 39°F / 4°C 58% 30.24 in
(1024 mb)
Calm - 10SM
06:35
Clear
52°F / 11°C 41°F / 5°C 67% 30.24 in
(1024 mb)
Calm - 10SM
06:15
Clear
50°F / 10°C 41°F / 5°C 71% 30.24 in
(1024 mb)
Calm - 10SM
05:55
Clear
46°F / 8°C 37°F / 3°C 71% 30.21 in
(1023 mb)
Calm - 10SM
05:35
Clear
46°F / 8°C 37°F / 3°C 71% 30.21 in
(1023 mb)
Calm - 10SM
05:15
Clear
45°F / 7°C 37°F / 3°C 76% 30.21 in
(1023 mb)
Calm - 10SM
04:55
Clear
45°F / 7°C 37°F / 3°C 76% 30.21 in
(1023 mb)
E 3.5 mph
(E 6 kph)
- 10SM
04:35
Clear
46°F / 8°C 37°F / 3°C 71% 30.21 in
(1023 mb)
Calm - 10SM
04:15
Clear
46°F / 8°C 37°F / 3°C 71% 30.21 in
(1023 mb)
Calm - 10SM
03:55
Clear
48°F / 9°C 37°F / 3°C 66% 30.21 in
(1023 mb)
Calm - 10SM
03:35
Clear
46°F / 8°C 37°F / 3°C 71% 30.21 in
(1023 mb)
Calm - 10SM
03:15
Clear
46°F / 8°C 37°F / 3°C 71% 30.18 in
(1022 mb)
Calm - 10SM
02:55
Clear
48°F / 9°C 37°F / 3°C 66% 30.18 in
(1022 mb)
Calm - 10SM
02:35
Clear
50°F / 10°C 36°F / 2°C 58% 30.18 in
(1022 mb)
E 3.5 mph
(E 6 kph)
- 10SM
02:15
Clear
54°F / 12°C 36°F / 2°C 51% 30.18 in
(1022 mb)
Calm - 10SM
01:55
Clear
55°F / 13°C 36°F / 2°C 47% 30.18 in
(1022 mb)
NE 3.5 mph
(NE 6 kph)
- 10SM
01:35
Clear
55°F / 13°C 36°F / 2°C 47% 30.18 in
(1022 mb)
Calm - 10SM
01:15
Clear
55°F / 13°C 36°F / 2°C 47% 30.18 in
(1022 mb)
NE 3.5 mph
(NE 6 kph)
- 10SM
00:55
Clear
55°F / 13°C 36°F / 2°C 47% 30.18 in
(1022 mb)
Calm - 10SM
00:35
Clear
55°F / 13°C 36°F / 2°C 47% 30.18 in
(1022 mb)
NE 4.6 mph
(NE 7 kph)
- 10SM
00:15
Clear
57°F / 14°C 36°F / 2°C 44% 30.18 in
(1022 mb)
NE 5.8 mph
(NE 9 kph)
- 10SM
Time Weather Temperature Dewpoint Humidity Pressure Winds Precip Visibility


Weather for websites

WeatherForYou.com, LLC is not responsible for any damages or problems caused by this service. Current weather conditions are obtained from the closest station including government and personal stations which may have varying degrees of accuracy. Weather forecasts are derived from the NOAA NDFD. Like all things, this site belongs to Jesus Christ... He just trusts me to maintain it. If you have any questions or comments email webmaster@weatherforyou.com

Copyright © 2014, WeatherForYou.com LLC. All rights reserved.